Observations for Trim Market St
| Time | AQI | Temp °C | Hum % | Pres Pa | CO μg/m³ | H₂S μg/m³ | NO μg/m³ | NO₂ μg/m³ | O₃ μg/m³ | SO₂ μg/m³ | PM1 μg/m³ | PM2.5 μg/m³ | PM10 μg/m³ |
|---|---|---|---|---|---|---|---|---|---|---|---|---|---|
| Friday 10 July 2026 | |||||||||||||
| 23:00 | 1 | 21.2 | 64 | 57,442 | 0 | 0 | 0 | 4.5 | 9.23 | 0 | 0 | 2.86 | 4.21 |
| 22:55 | 1 | 21.4 | 63 | 57,478 | 0 | 0 | 0 | 8.58 | 17.57 | 0 | 0.71 | 2.37 | 3.53 |
| 22:54 | 1 | 21.4 | 63 | 57,487 | 0 | 0 | 0 | 8.89 | 21.03 | 0 | 0 | 1.88 | 3.53 |
| 22:53 | 1 | 21.4 | 63 | 57,493 | 0 | 0 | 0 | 5.29 | 12.13 | 0 | 0.71 | 1.88 | 2.86 |
| 22:48 | 1 | 21.6 | 63 | 57,511 | 0 | 0 | 0 | 8.66 | 18.71 | 0 | 0.71 | 3.38 | 4.86 |
| 22:45 | 1 | 21.8 | 63 | 57,500 | 0 | 0 | 0 | 9.52 | 23.47 | 0 | 0.71 | 2.89 | 4.19 |
| 22:44 | 1 | 21.8 | 63 | 57,494 | 0 | 0 | 0 | 8.51 | 9.16 | 0 | 0.71 | 3.38 | 4.86 |
| 22:43 | 1 | 21.8 | 63 | 57,480 | 0 | 0 | 0 | 8.2 | 12.97 | 0 | 1.43 | 2.38 | 3.53 |
| 22:42 | 1 | 21.8 | 63 | 57,466 | 0 | 0 | 0 | 3.08 | 3.37 | 0 | 0 | 1.88 | 2.86 |
| 22:41 | 1 | 21.9 | 63 | 57,452 | 0 | 0 | 0 | 5.95 | 0.81 | 0 | 0.71 | 2.87 | 4.2 |
| 22:40 | 1 | 21.9 | 63 | 57,443 | 0 | 0 | 0 | 11.35 | 26.37 | 0 | 0.71 | 2.37 | 3.53 |
| 22:37 | 1 | 22.1 | 64 | 57,419 | 0 | 0 | 0 | 7.38 | 6.99 | 0 | 0 | 2.37 | 4.87 |
| 22:35 | 1 | 22.2 | 64 | 57,423 | 0 | 1.36 | 0 | 7.95 | 11.36 | 0 | 1.43 | 3.36 | 4.87 |
| 22:33 | 1 | 22.2 | 63 | 57,454 | 0 | 6.78 | 0 | 13.67 | 13.94 | 0 | 0.71 | 3.37 | 5.53 |
| 22:23 | 1 | 22.6 | 62 | 57,635 | 0 | 7.57 | 0 | 15.91 | 20.72 | 0 | 0.71 | 3.43 | 5.51 |
| 22:21 | 1 | 22.7 | 62 | 57,671 | 0 | 0 | 0 | 8.71 | 12.08 | 0 | 2.14 | 3.94 | 6.85 |
| 22:19 | 1 | 22.8 | 62 | 57,700 | 0 | 4.9 | 0 | 14.11 | 4.29 | 0 | 1.43 | 3.95 | 5.5 |
| 22:18 | 1 | 22.8 | 61 | 57,718 | 0 | 4.71 | 0 | 14.83 | 28.55 | 0 | 2.14 | 3.96 | 6.17 |
| 22:16 | 1 | 22.9 | 61 | 57,750 | 0 | 0 | 0 | 10.44 | 11.89 | 0 | 2.14 | 4.97 | 6.85 |
| 22:14 | 1 | 23 | 61 | 57,762 | 0 | 2.64 | 0 | 8.44 | 11.29 | 0 | 1.43 | 3.48 | 4.81 |